Regional Weather Roundup
Issued by NWS Grand Forks, ND

Home | Current Version | Previous Version | Graphics & Text | Print | Product List | Glossary On
Versions: 1 2 3 4 5 6 7 8 9 10 11 12 13 14 15 16 17 18 19 20 21 22 23 24 25 26 27 28 29 30 31 32 33 34 35 36 37 38 39 40 41 42 43 44 45 46 47 48 49 50
000
ASUS43 KFGF 031931
RWRFGF
PRAIRIE TO PINES  WEATHER ROUNDUP
NATIONAL WEATHER SERVICE EASTERN NORTH DAKOTA/GRAND FORKS ND
200 PM CDT FRI JUL 03 2015

 **SATELLITE DATA USED TO AUGMENT SKY COVER AT AUTOMATED STATIONS**
 *****  WEATHER ACROSS EASTERN NORTH DAKOTA  *****

CITY           SKY/WX    TMP DP  RH WIND       PRES   REMARKS
GRAND FORKS    PTSUNNY   80  64  58 N9        29.92F HAZE
GRAND FRKS AFB MOSUNNY   79  64  59 N7        29.93F HAZE
GRAND FRKS NWS   N/A     81 N/A N/A N10         N/A
DEVILS LAKE    SUNNY     81  59  47 NW5       29.94F
FARGO          SUNNY     81  63  54 N7        29.92F HAZE
WAHPETON ARPT  MOCLDY    77  64  65 NW7       29.94S
$$

 ***** WEATHER ACROSS CENTRAL AND WESTERN NORTH DAKOTA  *****

CITY           SKY/WX    TMP DP  RH WIND       PRES   REMARKS
BISMARCK       PTSUNNY   79  62  56 CALM      29.98F HAZE
MINOT          CLOUDY    79  62  56 SW5       29.96F HAZE
JAMESTOWN      CLOUDY    79  60  52 NW7       29.95F HAZE
MINOT AFB      SUNNY     83  70  65 S2        29.95F HAZE
GARRISON         N/A     78  64  61 SW7       29.97F
WILLISTON      SUNNY     84  57  39 S7        29.96F
DICKINSON      SUNNY     79  58  48 S3        29.98F
HETTINGER      MOSUNNY   80  58  46 VRB3      30.02F
$$

 *****  OTHER AIRPORT OBSERVATIONS IN OUR AREA  *****

CITY           SKY/WX    TMP DP  RH WIND       PRES   REMARKS
WALHALLA       FAIR      77  63  61 MISG      29.94F HAZE
GRAFTON AIRPOR FAIR      79  63  57 N6        29.94S HAZE
VALLEY CITY AR FAIR      81  63  54 NE6       29.95F HAZE
CANDO          FAIR      81  61  50 NE6       29.96F HAZE
CAVALIER APRT  FAIR      77  61  57 N3        29.94S HAZE
GWINNER          N/A    N/A N/A N/A N6        29.95
SHEYENNE NWR     N/A     80  68  65 NW5       29.95S
ROLLA            N/A     77  59  53 CALM      29.98F
 ***** THE ABOVE OBSERVATIONS ARE NON NWS ARE NOT QUALITY
       CONTROLLED AND MAY MIS-REPORT RAIN FOR SNOW...
$$

  *****  WEATHER ACROSS NORTHERN MINNESOTA  *****

CITY           SKY/WX    TMP DP  RH WIND       PRES   REMARKS
FLAG ISLAND    SUNNY     73  55  53 N8        29.91S
WARROAD        SUNNY     79  57  47 N7        29.92S
ROSEAU         SUNNY     79  63  57 N8        29.92S
HALLOCK        SUNNY     79  63  57 NW7       29.92F HAZE
THF RVR FALLS  MOSUNNY   77  61  57 NW5       29.93F
BAUDETTE       SUNNY     77  55  46 N14G22    29.92R
WASKISH        SUNNY     79  59  50 NW5       29.91S
CROOKSTON      SUNNY     79  61  53 NW8       29.93S HAZE
$$
  *****  WEATHER ACROSS CENTRAL AND WEST MINNESOTA  *****

CITY           SKY/WX    TMP DP  RH WIND       PRES   REMARKS
FOSSTON        MOSUNNY   79  63  57 CALM      29.94S HAZE
BEMIDJI        MOSUNNY   78  59  52 N7        29.93S HAZE
PARK RAPIDS    CLOUDY    79  60  52 N6        29.93S HAZE
ELBOW LAKE     MOCLDY    77  67  71 N5        29.94S HAZE
WADENA         PTSUNNY   77  63  61 NW3       29.93S HAZE
DETROIT LAKES    N/A     79  61  53 NW8       29.95F HAZE
MOORHEAD         N/A     79  64  61 CALM      29.93F HAZE
FERGUS FALLS   MOSUNNY   79  64  61 N7        29.93S HAZE
MORRIS MN      MOSUNNY   81  66  61 N5        29.94S
STAPLES        PTSUNNY   79  61  53 NW5       29.93S HAZE
$$
  *****  WEATHER ELSEWHERE ACROSS MINNESOTA  *****

CITY           SKY/WX    TMP DP  RH WIND       PRES   REMARKS
DULUTH         MOSUNNY   79  63  57 W8        29.88F HAZE
INTRNTL FALLS  MOSUNNY   77  57  50 N12G21    29.89R
ELY            MOSUNNY   75  54  46 NW14G20   29.87S
CLOQUET        MOSUNNY   79  61  53 W8        29.89S HAZE
WHEATON        MOSUNNY   75  64  69 NW5       29.96S HAZE
BRAINERD       CLOUDY    78  64  61 N8        29.92F HAZE
HIBBING        PTSUNNY   78  59  51 NW14      29.89R
ALEXANDRIA     MOSUNNY   76  65  68 W8        29.96S
SAINT CLOUD    PTSUNNY   79  62  56 SW9       29.93S
MINNEAPOLIS    CLOUDY    77  55  46 SW8       29.95F
$$

  *****  WEATHER ACROSS SOUTH DAKOTA  *****

CITY           SKY/WX    TMP DP  RH WIND       PRES   REMARKS
SIOUX FALLS    PTSUNNY   74  62  66 CALM      30.01R
BROOKINGS      MOSUNNY   77  64  65 SW6       30.00F
WATERTOWN      MOSUNNY   78  65  63 NW8       29.97F
HURON          MOSUNNY   79  67  66 CALM      29.97F
SISSETON         N/A     80  63  55 N7        29.94S
ABERDEEN       PTSUNNY   82  64  54 VRB5      29.96F HAZE
MITCHELL       SUNNY     77  65  66 CALM      29.99F
PIERRE         SUNNY     80  64  58 CALM      29.98F HAZE
MOBRIDGE       MOSUNNY   82  65  56 NW7       29.96F HAZE
RAPID CITY     SUNNY     78  61  55 SE10      30.05F
$$

  *****  SOME WEATHER IN NEARBY STATES *****

CITY           SKY/WX    TMP DP  RH WIND       PRES   REMARKS
GLASGOW MT     SUNNY     83  54  36 MISG      29.93F
GREAT FALLS MT MOSUNNY   90  41  18 SW9       29.94F
CHEYENNE WY    SUNNY     75  55  49 MISG      30.20F
SCOTTSBLUFF NE SUNNY     83  54  36 MISG      30.09F
OMAHA NE       PTSUNNY   76  56  49 CALM      30.01F
DES MOINES IA  MOSUNNY   78  53  41 CALM      29.99F
DAVENPORT IA   MOSUNNY   75  57  53 W3        29.98F
CHICAGO IL     PTSUNNY   74  53  48 VRB3      29.95F
EAU CLAIRE WI  SUNNY     77  56  48 W8        29.93F
LA CROSSE WI   MOSUNNY   76  57  51 CALM      29.96S
$$

  *****  SOME NATIONAL WEATHER *****

CITY           SKY/WX    TMP DP  RH WIND       PRES   REMARKS
LA GUARDIA NY  PTSUNNY   81  49  32 VRB7      29.96F
RALEIGH NC     LGT RAIN  74  71  91 SE3       29.94F FOG
ATLANTA GA     CLOUDY    78  68  71 W13G18    30.04S
NEW ORLEANS LA PTSUNNY   92  74  55 S12       30.03F HX 101
OKLAHOMA CITY  MOSUNNY   87  71  58 W3        29.95F HX  93
ALBUQUERQUE NM PTSUNNY   81  56  42 VRB3      30.18F
SALT LAKE CITY MOSUNNY   95  45  17 NW8       30.00F HX  91
LOS ANGELES CA MOSUNNY   70  62  76 SW9       29.97F
BOISE ID       SUNNY     96  43  16 W9        29.93F HX  92
SEATTLE WA     SUNNY     83  56  39 W8        29.96F
$$

*** WEATHER ACROSS MANITOBA...SASKATCHEWAN AND ONTARIO ***
                ***ONTARIO***

CITY           SKY/WX    TMP DP  RH WIND       PRES   REMARKS
GERALDTON      LGT RAIN  66  61  82 NW9       29.77R
THUNDER BAY    TSTM      73  63  68 N5G17     29.79R
SIOUX LOOKOUT  PTSUNNY   66  57  72 N8        29.91R SMOKE
TORONTO        PTSUNNY   72  43  35 SE6       29.98F
BIG TROUT LK   MOSUNNY   70  48  46 N9G18     29.86S
PICKLE LAKE    PTSUNNY   70  52  52 N8        29.86S
DRYDEN         MOSUNNY   72  54  53 N9G18     29.91R
KENORA         PTSUNNY   77  50  38 N12       29.92S
$$
                *** MANITOBA***

CITY           SKY/WX    TMP DP  RH WIND       PRES   REMARKS
BRANDON        CLOUDY    77  59  53 W5        29.96F SMOKE
DAUPHIN        SUNNY     79  64  61 W6        29.91F HAZE
ISLAND LAKE    MOSUNNY   72  50  46 W7        29.93S
PILOT MOUND      N/A     75  57  53 E1          N/A
THE PAS        PTSUNNY   77  61  57 S9        29.82F SMOKE
THOMPSON       CLOUDY    77  48  36 S7        29.84F
WINNIPEG       SUNNY     77  61  57 NW7       29.94R SMOKE
LYNN LAKE      PTSUNNY   70  55  60 SE12G18   29.73F HAZE
CHURCHILL      MOSUNNY   61  48  63 E17       29.92F
GILLAM         PTSUNNY   73  52  46 S8        29.87F
$$
                ***SASKATCHEWAN***

CITY           SKY/WX    TMP DP  RH WIND       PRES   REMARKS
ESTEVAN        SUNNY     77  64  65 VRB5      29.96F SMOKE
KINDERSLEY     MOSUNNY   84  63  48 S14       29.86F SMOKE
LLOYDMINSTER   MOSUNNY   86  52  30 SW9       29.81F
PRINCE ALBERT  CLOUDY    86  61  42 SW13G22   29.80F
REGINA         PTSUNNY   82  61  47 SW6       29.92F SMOKE
YORKTON        CLOUDY    79  61  53 SW9       29.92F HAZE
N. BATTLEFORD  SUNNY     82  57  42 SW12      29.83F
LA RONGE       PTSUNNY   88  55  33 SW13G18   29.70F
SASKATOON      PTSUNNY   86  55  35 SW16G22   29.86F
SWIFT CURRENT  SUNNY     84  57  39 S12G17    29.91F HAZE
$$
NOTE: THESE ARE AUTOMATED STATIONS WITH LIMITED QUALITY CONTROL
      "FAIR" INDICATES FEW OR NO CLOUDS BELOW 12,000 FEET WITH NO
      SIGNIFICANT WEATHER AND/OR OBSTRUCTIONS TO VISIBILITY.
      SKY/WX - SKY CONDITION AND SIGNIFICANT WEATHER.
      TMP - AIR TEMPERATURE.    DP   - DEWPOINT TEMPERATURE.
      RH  - RELATIVE HUMIDITY.  PRES - PRESSURE.
      HX  - HEAT INDEX.         WCI  - WIND CHILL INDEX.
$



USA.gov is the U.S. government's official web portal to all federal, state and local government web resources and services.